Flag for U.S.A. Weather past 2 weeks in Omaha, Nebraska, U.S.A.

Now
69 °F

Overcast.


Feels Like: 69 °F
Forecast: 67 / 79 °F
Wind: No wind

Location: Millard Airport

Current Time: Aug 5, 2015 at 5:56:56 AM

Latest Report: Aug 5, 2015 at 5:15 AM


Visibility: 10 mi

Pressure: 29.96 "Hg

Humidity: 94%

Dew point: 67 °F

Location of OmahaLocation

Historic Weather in Omaha — Graph

°F

Omaha temperature yesterday

Maximum temperature yesterday: 80 °F (at 3:35 PM)
Minimum temperature yesterday: 67 °F (at 10:15 AM)
Average temperature yesterday: 72 °F

Past Weeks' High & Low Weather Summary

 TemperatureHumidityPressure
High96 °F (Jul 24, 4:15 PM)97% (Aug 1, 5:35 AM)30.21 "Hg (Aug 1, 5:35 AM)
Low61 °F (Jul 30, 5:55 AM)26% (Jul 29, 12:35 PM)29.74 "Hg (Jul 28, 6:15 AM)
Average77 °F74%29.97 "Hg
* Reported Jul 21 4:15 AM — Aug 5 4:55 AM, Omaha, Weather by CustomWeather, © 2015

Note: Actual official high and low records may vary slightly from our data, if they occured in-between our weather recording intervals... More about our weather records

Advertising

Omaha weather history for previous 24 hours

 ConditionsComfort  
Time TempWeatherWind HumidityBarometerVisibility
4:55 AM
Wed, Aug 5
69 °FMostly cloudy.No wind93%29.97 "Hg10 mi
4:35 AM69 °FOvercast.5 mph93%29.98 "Hg10 mi
4:15 AM69 °FMostly cloudy.5 mph93%29.97 "Hg10 mi
3:55 AM69 °FMostly cloudy.3 mph92%29.97 "Hg10 mi
3:15 AM69 °FOvercast.No wind92%29.99 "Hg10 mi
2:55 AM69 °FPartly cloudy.5 mph91%29.98 "Hg10 mi
2:15 AM69 °FPassing clouds.3 mph92%29.98 "Hg10 mi
1:55 AM69 °FPassing clouds.No wind92%29.98 "Hg10 mi
1:15 AM70 °FClear.No wind91%29.98 "Hg10 mi
12:55 AM71 °FClear.No wind88%29.98 "Hg10 mi
12:35 AM71 °FClear.No wind90%29.96 "Hg10 mi
12:15 AM71 °FClear.No wind91%29.96 "Hg10 mi
11:35 PM
Tue, Aug 4
72 °FClear.3 mph88%29.94 "Hg10 mi
11:15 PM72 °FClear.3 mph89%29.95 "Hg10 mi
10:55 PM72 °FClear.6 mph90%29.96 "Hg10 mi
10:15 PM72 °FClear.6 mph88%29.96 "Hg10 mi
9:55 PM71 °FPassing clouds.5 mph88%29.96 "Hg10 mi
9:15 PM72 °FThundershowers. Scattered clouds.8 mph91%29.96 "Hg10 mi
8:55 PM72 °FThunderstorms. Mostly cloudy.3 mph91%29.96 "Hg10 mi
8:35 PM74 °FRain. Mostly cloudy.8 mph81%29.96 "Hg10 mi
8:15 PM76 °FThundershowers. Broken clouds.6 mph78%29.96 "Hg10 mi
7:55 PM76 °FBroken clouds.5 mph78%29.95 "Hg10 mi
7:35 PM77 °FThundershowers. Broken clouds.No wind78%29.94 "Hg10 mi
7:15 PM77 °FScattered clouds.5 mph77%29.93 "Hg10 mi
6:55 PM77 °FBroken clouds.7 mph77%29.95 "Hg10 mi
6:35 PM79 °FPartly sunny.3 mph74%29.94 "Hg10 mi
6:15 PM79 °FPartly sunny.5 mph73%29.95 "Hg10 mi
5:55 PM78 °FSunny.3 mph73%29.95 "Hg10 mi
5:15 PM76 °FScattered clouds.3 mph76%29.94 "Hg10 mi
4:55 PM74 °FBroken clouds.5 mph78%29.95 "Hg10 mi
4:15 PM79 °FPartly sunny.No wind74%29.93 "Hg10 mi
3:55 PM80 °FScattered clouds.7 mph70%29.92 "Hg10 mi
3:35 PM80 °FScattered clouds.3 mph73%29.91 "Hg10 mi
3:15 PM79 °FScattered clouds.9 mph71%29.91 "Hg10 mi
2:55 PM79 °FSunny.9 mph72%29.92 "Hg10 mi
2:35 PM76 °FSunny.14 mph76%29.93 "Hg10 mi
2:15 PM74 °FSunny.9 mph78%29.94 "Hg10 mi
1:50 PM74 °FSunny.6 mph80%29.95 "Hg10 mi
1:35 PM73 °FSunny.8 mph80%29.95 "Hg10 mi
1:15 PM72 °FSunny.10 mph81%29.95 "Hg10 mi
12:55 PM70 °FSunny.14 mph83%29.95 "Hg10 mi
12:35 PM70 °FSunny.10 mph85%29.96 "Hg10 mi
12:15 PM70 °FSunny.8 mph84%29.98 "Hg10 mi
11:55 AM69 °FScattered clouds.No wind87%30.00 "Hg10 mi
11:35 AM68 °FScattered clouds.3 mph89%30.00 "Hg10 mi
11:15 AM68 °FScattered clouds.6 mph90%29.99 "Hg10 mi
10:55 AM68 °FLight rain. Mostly cloudy.6 mph89%30.00 "Hg10 mi
10:35 AM67 °FLight rain. Overcast.5 mph90%30.01 "Hg10 mi
10:15 AM67 °FRain. Overcast.No wind91%30.05 "Hg7 mi
9:15 AM68 °FScattered clouds.5 mph93%30.02 "Hg10 mi
8:55 AM68 °FLight rain. Broken clouds.No wind94%30.02 "Hg10 mi
8:35 AM68 °FThundershowers. Broken clouds.No wind92%30.03 "Hg4 mi
8:15 AM68 °FThundershowers. Scattered clouds.5 mph92%30.03 "Hg10 mi
7:55 AM68 °FThundershowers. Scattered clouds.No wind91%30.03 "Hg10 mi
7:35 AM68 °FLight rain. Scattered clouds.No wind90%30.02 "Hg10 mi
7:15 AM68 °FThundershowers. Partly cloudy.7 mph88%30.03 "Hg10 mi
6:55 AM69 °FThundershowers. Passing clouds.No wind85%29.99 "Hg10 mi
6:35 AM70 °FThunderstorms. Passing clouds.5 mph82%29.99 "Hg10 mi
6:15 AM71 °FThundershowers. Partly cloudy.5 mph78%30.00 "Hg10 mi
5:55 AM71 °FThundershowers. Mostly cloudy.3 mph75%30.00 "Hg10 mi
5:35 AM71 °FPartly cloudy.3 mph76%29.99 "Hg10 mi
5:10 AM70 °FClear.No wind77%29.94 "Hg10 mi
Weather by CustomWeather, © 2015

See weather overviewHow to use our weather pages